Location: Newark
(43.0000°N, 1.6781°W)
Time: 06:26:50
(UTC+00:00)

XW-2C - Pass Details

Date: 02 December 2022
Orbit: 491 x 506 km, 97.5° (Epoch: 28 January)

Event Time Altitude Azimuth Distance (km) Brightness Sun altitude
Rises 05:11:09 0° 34° (NE) 2,580 ? -22.8°
Reaches altitude 10° 05:14:18 10° 64° (ENE) 1,690 ? -22.2°
Maximum altitude 05:15:56 13° 91° (E) 1,530 ? -21.9°
Drops below altitude 10° 05:17:33 10° 118° (ESE) 1,683 ? -21.6°
Sets 05:20:40 0° 148° (SSE) 2,559 ? -21.0°
